Flag for Mexico Weather past 2 weeks in Querétaro, Querétaro, Mexico

Now
73 °F

Partly sunny.


Feels Like: 77 °F
Forecast: 59 / 75 °F
Wind: 9 mph from Northeast

Location: Queretaro - Qro.

Current Time: May 30, 2015 at 2:24:33 PM

Latest Report: May 30, 2015 at 1:45 PM


Visibility: 7 mi

Pressure: 30.28 "Hg

Humidity: 47%

Dew point: 52 °F

Location of QuerétaroLocation

Historic Weather in Querétaro — Graph

°F

Querétaro temperature yesterday

Maximum temperature yesterday: 77 °F (at 4:45 PM)
Minimum temperature yesterday: 55 °F (at 6:45 AM)
Average temperature yesterday: 64 °F

Past Weeks' High & Low Weather Summary

 TemperatureHumidityPressure
High82 °F (May 16, 4:52 PM)100% (May 17, 1:45 AM)30.42 "Hg (May 17, 1:45 AM)
Low52 °F (May 20, 6:45 AM)21% (May 18, 5:45 PM)30.16 "Hg (May 16, 4:52 PM)
Average67 °F69%30.30 "Hg
* Reported May 15 12:55 PM — May 30 12:45 PM, Querétaro, Weather by CustomWeather, © 2015

Note: Actual official high and low records may vary slightly from our data, if they occured in-between our weather recording intervals... More about our weather records

Advertising

Querétaro weather history for previous 24 hours

 ConditionsComfort  
Time TempWeatherWind HumidityBarometerVisibility
12:45 PM
Sat, May 30
68 °FMostly cloudy.12 mph60%30.30 "Hg6 mi
11:45 AM68 °FMostly cloudy.6 mph60%30.30 "Hg6 mi
10:45 AM64 °FCloudy.12 mph68%30.31 "Hg6 mi
9:45 AM61 °FBroken clouds.6 mph83%30.31 "Hg6 mi
8:45 AM59 °FCloudy.6 mph88%30.29 "Hg7 mi
7:45 AM54 °FOvercast.6 mph100%30.27 "Hg7 mi
6:45 AM55 °FPartly cloudy.5 mph94%30.26 "Hg7 mi
5:45 AM54 °FClear.No wind94%30.27 "Hg8 mi
4:45 AM55 °FPassing clouds.No wind94%30.26 "Hg8 mi
11:45 PM
Fri, May 29
61 °FPassing clouds.5 mph83%30.31 "Hg8 mi
10:45 PM63 °FPassing clouds.5 mph77%30.31 "Hg8 mi
9:45 PM61 °FOvercast.6 mph77%30.30 "Hg7 mi
8:45 PM61 °FMostly cloudy.6 mph83%30.27 "Hg7 mi
7:45 PM64 °FMostly cloudy.12 mph64%30.23 "Hg7 mi
5:45 PM77 °FPartly sunny.12 mph36%30.18 "Hg7 mi
4:45 PM77 °FPartly sunny.12 mph34%30.16 "Hg7 mi
3:45 PM75 °FPartly sunny.6 mph50%30.21 "Hg7 mi
2:45 PM75 °FBroken clouds.No wind50%30.24 "Hg6 mi
Weather by CustomWeather, © 2015

See weather overviewHow to use our weather pages